BEIDOU-2 G1

Last updated on Tue Sep 22 2026 00:03:11 GMT+0000 (Coordinated Universal Time)

1 36287U 10001A 26264.37432350 -.00000280 00000+0 00000+0 0 9994 2 36287 4.5151 59.9914 0001936 256.9536 318.5721 1.00273363 61139
UTC large
Height (km)
Speed (km/s)
/
Latitude / Longitude
Inclination (degrees)
Orbital Period (minutes)
Azimuth
Elevation
Range (km)
Doppler Factor

Next 0 passes for location: London (51.5072 / 0.1276)

No passes found over London.
BEIDOU-2 G1